Regional Weather Roundup
Issued by NWS

Home | Current Version | Previous Version | Graphics & Text | Print | Product List | Glossary On
Versions: 1 2 3 4 5 6 7 8 9 10 11 12 13 14 15 16 17 18 19 20 21 22 23 24 25 26 27 28 29 30 31 32 33 34 35 36 37 38 39 40 41 42 43 44 45 46 47 48 49 50
000
ASUS43 KBIS 271959
RWRND

NORTH DAKOTA REGIONAL WEATHER ROUNDUP
NATIONAL WEATHER SERVICE BISMARCK ND
200 PM CST THU NOV 27 2014

NOTE: "FAIR" INDICATES FEW OR NO CLOUDS BELOW 12,000 FEET WITH NO
SIGNIFICANT WEATHER AND/OR OBSTRUCTIONS TO VISIBILITY.


NDZ001>003-009>011-017-272100-
NORTHWEST NORTH DAKOTA

CITY           SKY/WX    TMP DP  RH WIND       PRES   REMARKS
WILLISTON      SNOW      20  17  88 E12       29.88F VSB 1/2 WCI   8
MINOT          LGT SNOW  13   7  77 SE13      30.08F WCI  -2
MINOT AFB      FLURRIES  12   9  85 SE10      30.10F WCI  -1
$$

NDZ018>021-031>035-040>046-272100-
SOUTHWEST NORTH DAKOTA

CITY           SKY/WX    TMP DP  RH WIND       PRES   REMARKS
BISMARCK       CLOUDY    10   4  76 SE10      30.13F WCI  -4
DICKINSON      MIX PCPN  21  18  86 SE24G30   29.87F FOG     WCI   4
GARRISON         N/A     11   8  88 SE13      30.05F WCI  -4
HETTINGER ARPT CLOUDY    21  17  84 S15       29.94F WCI   8
$$

NDZ004>008-012>016-024-026-027-054-272100-
NORTHEAST NORTH DAKOTA

CITY           SKY/WX    TMP DP  RH WIND       PRES   REMARKS
GRAND FORKS    CLOUDY     5  -3  69 S10       30.37F WCI -10
DEVILS LAKE    CLOUDY     5  -8  56 SE14      30.19F WCI -12
$$

NDZ022-023-025-028>030-036>039-047>053-272100-
SOUTHEAST NORTH DAKOTA

CITY           SKY/WX    TMP DP  RH WIND       PRES   REMARKS
FARGO          SUNNY      6  -5  60 SE10      30.37F WCI  -9
$$



USA.gov is the U.S. government's official web portal to all federal, state and local government web resources and services.